Wind_Speed
5 3 4 6 6 8 9 9 9 6 4 5 9 7 6 6 3 2 2 2 1 3 6 7 6 7 8 7 7 8 8 7 7 7 7 6 6 6 7 7 8 7 6 11 18 22 25 25 25 25 24 25 25 25 26 25 25 26 26 26 26 27 25 23 25 25 25 26 25 23 23 23 21 20 20 20 21 21 21 22 23 23 22 22 22 22
5 6 6 8 9 8 9 11 10 5 5 4 7 8 6 6 2 2 2 3 2 1 5 7 7 8 8 7 5 6 9 8 9 9 8 8 7 7 7 8 8 6 5 9 11 16 23 24 24 25 24 25 26 26 27 27 28 27 27 27 26 27 27 26 26 26 27 28 27 25 25 24 22 21 21 22 21 22 22 22 23 23 23 22 23 24
5 7 7 9 9 6 6 10 8 3 4 5 2 6 5 4 4 4 2 3 3 0 2 4 5 8 8 7 7 6 8 8 10 11 9 9 9 8 9 8 8 7 6 7 8 12 19 21 22 23 24 26 27 28 28 28 28 28 27 27 27 26 27 28 27 26 26 26 25 24 22 22 21 20 21 22 21 21 22 23 22 20 20 20 21 22
5 5 6 7 8 6 4 5 6 2 3 4 2 3 4 4 4 1 1 3 2 1 1 1 2 6 6 6 8 10 10 8 9 12 10 9 10 9 8 8 9 10 9 8 8 10 15 18 19 22 24 25 25 26 27 27 27 28 28 27 27 27 26 27 28 26 25 23 23 22 19 18 18 18 18 19 20 20 21 23 24 23 23 23 24 23
5 3 2 3 7 9 4 2 5 3 3 4 3 1 2 5 4 2 4 4 1 0 1 2 4 5 6 7 9 9 9 9 8 10 10 9 9 7 4 4 6 8 9 9 9 9 13 16 19 22 23 24 24 24 26 28 28 28 28 28 27 27 26 26 27 26 24 22 22 21 20 18 17 16 16 16 17 18 18 19 21 22 24 26 27 28
6 2 1 2 7 9 6 3 4 5 3 4 4 3 2 4 7 7 7 5 2 2 3 2 1 6 6 9 11 7 8 9 7 8 10 8 7 6 5 5 5 5 5 7 8 8 13 17 19 20 21 22 24 25 25 26 27 26 27 27 27 26 25 25 25 26 26 24 23 23 23 21 19 19 20 20 19 18 17 17 16 17 18 20 22 25
2 1 1 4 7 7 7 5 5 6 3 4 4 2 1 6 9 9 8 5 3 3 3 3 4 5 4 5 9 7 8 9 7 7 9 8 7 7 7 7 6 6 6 5 5 6 10 15 17 19 21 23 24 25 24 23 24 24 23 25 26 25 25 24 24 25 26 26 24 23 23 22 21 21 20 19 19 18 18 17 17 17 16 16 17 20
2 3 1 2 4 5 6 4 5 7 4 3 3 2 4 9 8 8 8 4 2 2 2 1 2 2 4 5 3 6 8 7 6 8 9 7 8 8 8 8 7 7 7 6 6 6 7 11 14 17 19 20 20 20 21 22 23 22 22 23 24 24 23 23 23 23 26 27 25 22 21 20 20 20 17 13 13 13 14 15 15 15 14 13 14 16
2 4 3 3 4 4 4 2 4 7 5 3 3 2 2 7 7 7 6 3 0 3 1 4 2 1 4 5 2 4 5 6 7 10 10 9 9 8 7 7 6 6 5 5 6 6 7 10 12 13 14 16 17 18 20 22 22 21 21 21 21 23 22 22 22 22 24 25 24 23 22 20 19 17 15 12 11 10 11 12 13 12 12 12 13 14
1 3 3 3 4 3 3 2 2 3 4 3 3 1 4 4 4 4 5 3 2 0 3 6 5 2 4 5 4 2 3 7 8 8 8 8 7 7 7 6 6 5 4 4 4 5 6 9 10 11 12 14 15 16 18 19 20 20 20 20 21 21 21 21 22 22 22 22 22 22 22 21 19 17 15 14 12 10 9 10 11 12 13 14 14 15
1 1 0 1 2 2 3 2 3 1 3 5 4 4 6 5 4 2 1 4 3 2 3 4 4 2 3 5 5 4 3 5 6 4 4 6 7 7 6 6 6 5 5 5 4 5 6 8 9 10 11 12 13 14 15 16 18 20 20 20 20 20 19 19 21 21 21 21 20 20 20 19 17 16 14 13 12 12 11 11 12 13 13 14 15 16
1 2 1 0 1 2 2 2 4 2 3 5 4 4 4 3 4 4 3 2 2 4 3 3 3 1 3 5 3 3 3 2 3 5 7 7 6 6 5 5 5 5 6 6 5 6 7 7 8 10 11 11 12 13 14 15 16 18 19 20 19 18 17 18 20 21 20 21 21 20 18 17 16 15 13 12 11 12 12 13 14 14 14 14 15 15
3 2 1 1 1 2 2 2 4 4 2 0 4 6 5 1 1 0 1 1 3 3 3 3 3 1 5 7 6 5 4 3 2 3 7 8 7 6 6 5 5 5 5 5 6 5 6 7 9 11 12 12 12 13 14 16 16 18 19 20 20 18 17 18 19 20 20 19 20 20 18 16 16 15 14 13 12 12 12 12 12 12 13 13 13 13
1 0 1 1 0 2 3 3 2 1 3 3 5 6 5 4 2 3 3 3 3 2 3 4 2 2 3 6 9 8 6 6 5 6 7 7 8 7 6 5 5 5 5 5 5 5 5 7 10 12 13 13 14 14 15 16 17 18 19 20 21 19 19 19 19 20 20 18 17 18 18 17 16 16 15 14 13 12 11 10 10 11 11 11 11 11
4 2 2 3 1 3 4 2 2 4 4 5 4 4 5 4 4 4 4 4 3 0 2 3 1 4 3 3 5 3 1 4 6 6 7 7 6 6 5 5 6 6 5 5 5 5 6 8 10 12 13 14 15 15 16 17 18 19 20 21 22 20 19 19 19 20 19 17 16 16 16 16 15 15 14 14 13 12 11 11 10 9 9 8 8 8
7 4 1 1 2 1 3 1 1 3 3 4 2 3 3 4 4 3 2 4 4 2 0 2 2 4 4 3 4 4 4 5 5 5 6 6 5 5 4 5 6 5 5 6 6 6 6 8 10 12 14 14 15 16 16 17 18 19 19 18 20 19 19 18 18 19 18 16 16 15 15 15 14 14 13 12 11 10 9 9 8 7 7 7 8 8
6 3 3 2 2 1 1 1 1 2 2 2 2 3 4 2 6 4 0 0 3 2 2 3 3 4 3 4 3 5 4 3 4 3 5 7 6 5 5 5 6 5 6 6 6 6 7 9 11 12 13 14 15 16 16 16 16 18 17 16 18 18 17 16 15 16 14 13 13 12 12 12 11 10 9 8 7 6 6 6 7 8 9 10 11 11
5 2 2 1 1 1 1 0 1 1 2 3 3 4 2 1 3 3 1 1 2 1 2 3 4 4 2 3 1 4 5 6 6 6 5 6 7 6 6 6 6 6 6 6 6 7 7 9 11 12 13 13 14 15 16 16 16 17 16 15 16 16 15 14 13 13 12 10 10 9 8 7 6 5 5 5 6 7 7 7 9 9 10 10 11 11
5 3 2 1 0 2 1 1 1 2 1 3 3 1 2 1 1 1 3 2 2 2 3 3 5 4 4 4 2 5 8 7 7 7 7 7 7 7 6 6 6 6 6 5 6 6 7 10 11 11 12 13 13 14 14 15 16 16 15 14 15 15 15 14 13 13 12 11 10 9 8 8 7 6 6 6 7 8 8 8 8 9 9 9 10 10
5 4 1 2 1 1 2 1 4 3 1 1 1 2 2 2 2 2 3 3 3 3 3 2 2 3 5 6 6 8 9 9 9 8 8 8 7 7 7 7 6 6 6 5 6 5 6 10 11 11 12 12 13 13 14 14 15 15 15 14 15 14 14 14 12 11 11 11 10 9 9 8 8 8 7 7 7 6 6 6 7 7 7 8 8 9
3 3 2 1 2 1 1 2 5 5 4 2 1 1 2 1 1 1 2 2 3 3 3 2 2 5 6 3 4 7 6 7 8 9 8 7 7 8 7 7 7 6 6 6 6 6 7 11 12 11 11 12 13 14 14 14 14 14 14 13 13 13 13 13 12 10 10 9 8 8 7 7 6 6 5 5 5 5 5 5 5 5 5 6 7 8
1 2 4 3 1 2 2 2 1 2 3 3 3 4 5 4 3 1 3 2 2 2 3 4 3 6 5 2 2 4 5 4 4 7 7 7 7 8 7 8 7 7 7 7 7 6 8 11 12 11 11 12 12 13 12 12 13 13 12 12 12 12 12 11 11 10 8 7 7 7 6 6 5 5 4 4 4 4 4 3 2 2 3 3 4 5
2 4 5 3 2 2 1 0 1 1 1 2 2 2 3 4 4 4 4 3 1 1 1 2 1 5 5 2 4 3 4 4 3 5 6 6 6 7 7 7 7 7 7 7 7 7 9 12 12 12 12 12 12 12 11 11 11 12 12 12 11 12 12 11 11 10 9 9 8 8 8 7 6 6 6 5 5 4 4 3 2 2 2 2 3 3
2 4 4 3 1 2 2 0 1 1 1 1 3 3 3 5 6 5 4 3 3 2 2 2 3 5 5 2 3 3 2 2 1 1 5 5 5 6 6 6 7 7 7 7 7 7 10 13 13 12 12 12 11 11 11 10 11 12 11 11 11 12 12 12 12 12 12 12 11 10 10 9 9 8 8 7 7 6 7 6 6 5 5 6 6 6
2 3 4 4 3 1 1 1 1 2 3 2 4 5 4 3 4 3 1 1 1 4 6 5 4 6 5 3 2 2 1 1 3 3 3 5 5 5 5 5 6 7 7 8 7 7 9 10 11 11 12 12 12 11 10 10 10 11 11 10 11 12 13 13 13 13 13 12 12 12 11 10 10 9 9 9 9 9 9 9 8 8 8 8 8 8
4 4 5 5 5 5 5 5 4 3 2 1 2 4 5 4 6 5 2 2 3 5 6 5 5 6 4 3 2 3 4 4 4 4 3 3 5 6 6 6 6 6 7 8 8 7 7 8 9 12 12 12 12 11 11 11 11 11 11 11 11 12 13 14 14 14 13 13 12 12 11 11 11 11 11 10 10 11 11 10 10 9 9 10 10 11
3 3 6 9 9 9 9 7 6 7 5 5 7 9 10 9 9 7 4 5 6 4 4 6 7 6 6 3 4 5 5 6 4 5 5 4 5 7 7 6 6 6 6 7 8 7 7 7 9 12 13 13 12 12 12 12 11 11 12 12 12 12 13 14 14 14 14 13 13 13 13 13 13 12 12 12 12 12 12 12 12 12 12 12 12 13
3 3 7 11 12 11 9 8 9 11 10 13 14 14 14 12 11 9 7 10 9 5 6 9 8 9 8 5 6 7 6 6 6 7 7 6 6 6 7 7 6 6 6 7 7 8 8 8 8 12 14 13 13 12 13 13 12 12 12 13 13 14 14 15 15 15 15 15 15 15 15 15 14 14 14 13 14 14 14 14 13 13 13 13 13 13
4 6 7 9 10 9 7 6 9 12 11 12 13 15 15 13 12 12 12 14 9 7 10 11 10 11 9 6 7 9 7 7 7 7 6 6 7 6 7 8 7 7 7 7 8 8 8 8 8 12 15 14 14 13 13 14 13 12 13 13 14 15 16 16 16 17 17 17 17 17 17 16 16 15 15 14 15 15 14 14 13 13 12 12 12 12
3 4 5 7 9 9 5 4 6 10 10 10 11 13 13 13 14 15 16 17 13 11 13 12 9 9 7 7 8 7 6 6 4 5 6 7 8 7 8 8 8 8 8 8 9 8 8 8 9 13 16 15 16 15 15 14 13 13 14 14 15 16 16 17 18 18 18 18 18 17 17 17 16 16 15 14 14 14 14 13 12 11 11 11 12 12
1 2 2 4 5 6 2 1 1 2 6 8 9 9 10 12 14 15 15 15 12 11 14 11 8 8 6 7 6 3 5 6 6 6 6 7 7 7 8 8 8 9 9 8 8 8 8 8 11 14 16 16 16 16 16 15 14 14 15 15 16 17 17 18 19 19 18 18 18 17 16 16 16 15 14 14 13 13 12 11 11 11 11 11 12 12
3 1 2 3 4 4 1 1 1 4 4 2 5 7 11 12 13 13 14 13 11 11 12 10 9 10 7 6 5 4 6 7 7 7 6 6 7 9 9 9 9 10 9 9 8 9 9 9 11 14 16 17 18 17 16 16 16 16 16 17 17 18 19 19 19 19 19 18 17 16 15 15 15 14 14 13 12 11 11 10 10 11 10 11 12 12
6 5 2 2 5 3 4 1 4 6 4 4 7 10 14 13 12 11 10 12 12 11 10 9 11 13 7 7 7 6 7 8 7 7 7 7 9 9 10 10 10 10 9 8 9 9 10 10 13 16 18 19 18 17 17 17 17 17 18 18 18 19 20 19 19 19 18 17 16 15 15 14 14 14 13 12 11 10 10 9 9 10 10 11 11 12
6 8 5 3 3 2 4 2 4 4 6 10 8 10 15 15 13 12 11 14 15 13 11 11 13 11 6 8 9 8 8 8 8 8 8 8 8 9 9 10 10 9 8 8 9 9 9 11 16 18 19 19 18 18 18 17 18 19 19 19 19 20 20 19 19 18 17 16 15 14 14 13 13 13 12 11 10 9 8 9 9 10 10 11 12 13
8 8 6 4 3 0 3 2 3 7 10 7 2 7 13 14 14 14 15 17 17 15 15 14 13 10 7 8 9 9 10 9 8 8 8 8 9 9 9 9 9 8 8 8 8 9 10 15 19 20 20 20 19 19 19 19 20 21 20 20 20 20 20 19 19 17 16 16 15 14 13 13 12 11 10 9 9 8 9 9 10 10 11 12 13 14
8 7 5 4 4 2 1 3 6 6 5 3 2 3 7 8 10 11 13 15 14 13 13 13 15 13 9 8 8 8 7 6 5 7 7 9 9 9 9 9 9 9 9 10 11 13 16 20 22 23 22 21 21 21 21 21 22 23 21 21 21 21 20 19 18 17 15 15 14 12 12 11 10 10 9 8 8 9 9 10 11 11 12 13 14 14
7 8 5 4 5 5 4 6 5 6 8 6 6 4 5 7 8 9 10 12 10 10 11 13 16 15 11 8 6 4 4 4 3 7 6 7 7 7 7 6 7 8 8 10 14 16 18 22 23 23 23 22 22 22 23 23 24 24 24 22 21 21 19 18 17 16 14 13 12 11 10 9 9 8 8 8 9 10 10 11 12 12 13 14 15 16
2 5 6 6 6 6 6 5 4 5 11 15 10 5 6 7 8 8 6 8 8 12 14 14 15 14 9 7 6 5 6 5 6 8 7 7 6 7 7 6 7 10 12 15 18 18 19 21 22 23 24 24 23 22 24 25 25 25 25 22 21 20 19 17 16 14 13 12 11 10 9 8 8 8 8 9 9 10 11 11 12 13 14 14 15 16
1 0 4 5 4 5 7 6 6 8 13 13 8 6 7 8 9 9 3 10 10 11 12 13 14 13 9 8 8 7 7 5 8 8 5 5 5 7 7 6 9 12 14 16 20 22 22 23 24 23 24 24 24 23 24 25 26 26 25 22 20 19 18 16 15 13 12 11 10 9 8 8 8 8 8 9 9 10 11 11 12 13 13 14 15 16
3 0 2 5 5 6 7 7 6 6 9 7 7 8 9 11 12 9 6 13 7 9 11 12 13 12 9 10 9 8 8 8 9 6 3 4 6 7 7 8 9 12 15 16 19 23 24 24 25 24 23 24 24 23 24 25 26 25 23 21 19 18 16 15 14 13 12 11 10 9 8 7 7 7 8 9 9 10 11 11 12 12 13 14 15 16
3 3 4 6 7 6 7 7 5 5 7 6 8 9 11 12 9 8 11 9 3 10 11 12 12 11 10 10 9 8 7 4 3 5 5 7 8 8 9 12 13 15 17 19 21 23 24 23 23 23 22 22 23 23 24 25 25 24 22 20 18 17 15 14 13 12 11 10 9 8 8 7 7 7 7 8 9 10 10 11 12 12 13 14 16 16
5 4 4 6 7 5 5 5 4 7 6 5 4 3 9 10 6 8 7 2 3 8 7 6 9 9 8 9 9 7 4 4 7 7 6 7 8 7 9 13 15 16 17 19 21 23 24 23 22 22 21 20 21 22 23 25 25 23 21 19 17 15 15 14 13 12 11 10 9 8 7 7 7 7 7 8 9 9 10 11 12 12 13 15 16 17
7 6 4 6 6 5 4 5 6 8 4 10 10 1 3 6 6 5 3 2 1 4 5 4 4 5 7 7 6 6 7 7 7 7 7 7 8 8 9 11 14 15 17 18 19 21 24 24 22 21 20 19 20 21 22 24 24 22 20 18 16 15 14 13 12 11 10 9 8 7 7 7 6 6 7 8 8 9 9 10 11 12 14 16 17 18
7 7 5 6 7 6 6 8 7 4 4 11 11 6 6 5 3 4 5 2 1 1 4 5 3 3 7 8 7 7 8 7 7 7 7 7 7 8 9 11 14 15 16 18 19 20 23 24 22 20 19 19 20 20 20 21 22 21 19 16 15 14 14 13 11 10 10 9 8 7 6 6 6 6 7 7 8 8 10 11 12 13 15 17 18 19
8 7 5 4 6 6 6 7 5 4 6 7 4 5 8 5 2 3 6 5 2 1 2 4 4 4 6 9 8 7 6 6 7 7 7 8 7 8 9 11 14 16 17 18 20 20 22 23 23 22 20 18 18 19 18 18 20 20 18 16 15 14 13 12 11 10 9 8 7 7 6 5 6 6 6 7 8 9 10 12 13 14 16 17 17 18
4 4 4 4 4 5 4 4 3 2 3 2 3 1 5 5 4 3 6 6 3 3 4 5 6 5 7 8 8 6 5 7 8 7 7 8 7 8 10 12 14 17 18 20 20 21 22 23 23 23 21 18 17 18 17 17 17 18 17 15 14 13 12 11 10 9 8 7 6 6 5 5 5 6 6 7 9 10 11 12 13 15 16 16 16 16
2 3 3 3 5 6 5 4 5 4 5 4 2 4 4 5 4 3 5 5 5 5 5 5 6 6 7 7 8 7 7 8 9 7 7 8 8 8 9 11 14 16 19 20 21 22 24 24 22 22 21 19 17 17 17 16 16 16 16 15 14 12 11 11 10 8 7 6 5 5 4 5 5 6 6 7 8 9 10 11 12 14 15 15 15 15
2 4 4 4 6 6 4 3 3 4 4 3 3 3 3 4 5 5 5 5 6 6 5 5 5 6 6 6 8 9 8 8 9 9 7 7 7 7 9 12 15 17 18 19 21 23 23 23 22 22 21 19 17 17 17 17 16 15 15 14 13 12 11 10 9 8 7 6 5 4 4 4 5 5 6 7 8 9 10 12 12 13 14 14 13 14
4 5 4 5 5 3 1 1 2 4 3 2 1 2 3 5 6 6 5 6 7 6 6 6 5 4 6 6 7 9 9 8 8 8 8 7 7 7 10 14 16 17 18 20 21 22 22 22 22 22 21 20 19 18 17 17 16 15 14 13 12 11 10 9 9 7 6 5 5 4 4 4 5 5 6 7 9 10 11 12 13 12 12 11 11 12
5 5 4 5 5 5 4 5 5 4 1 4 4 1 3 6 7 7 5 5 6 5 6 6 6 5 5 6 7 8 8 7 7 8 8 7 8 10 14 17 17 17 19 20 20 20 20 21 22 23 21 20 20 19 17 17 16 15 13 12 11 9 9 8 8 7 6 5 5 4 4 4 4 6 7 9 11 11 12 12 12 12 11 10 11 12
4 5 5 5 5 4 2 3 5 5 3 2 1 1 2 5 8 7 5 5 5 4 5 7 5 4 4 4 4 7 8 7 8 9 7 6 9 13 17 19 20 20 21 22 22 21 20 20 21 22 21 21 20 19 18 17 16 14 12 11 9 8 8 7 7 6 6 5 5 4 3 3 4 5 7 9 11 13 14 14 14 12 9 9 12 14
Wind_Direction
176 186 199 212 215 215 218 221 225 234 254 205 182 200 199 181 196 123 118 276 166 162 216 215 219 233 237 230 197 177 182 192 200 208 212 213 217 210 196 195 196 201 203 188 191 195 192 193 193 191 191 190 190 193 194 195 194 194 193 194 198 198 197 197 196 198 200 202 204 208 212 215 220 223 226 229 231 231 232 236 241 241 239 238 238 239
176 205 215 207 220 229 219 226 234 244 288 269 180 189 210 186 168 60 107 204 204 139 219 220 234 245 239 246 238 178 173 194 202 202 210 208 208 213 206 204 203 194 171 167 171 175 180 186 188 189 189 189 190 192 195 197 197 197 196 195 198 199 197 197 198 199 201 204 205 208 213 216 218 221 224 228 230 231 230 233 240 243 240 237 236 238
194 219 218 206 224 253 231 222 228 246 287 298 196 174 205 188 121 59 62 162 174 163 235 199 220 251 246 240 248 219 196 200 200 201 206 203 205 209 205 207 204 187 168 169 162 159 168 176 181 185 189 192 194 195 196 199 200 199 198 199 199 198 199 200 200 202 203 206 207 209 212 214 216 220 226 231 234 235 233 230 233 238 239 239 238 240
198 219 225 216 218 240 265 212 191 208 281 294 294 170 190 172 135 118 192 161 188 175 54 354 258 260 255 242 237 228 220 211 203 206 205 200 204 204 197 197 196 188 183 182 176 171 172 173 178 183 188 191 194 196 198 199 200 201 200 200 200 200 201 202 202 203 203 205 206 207 208 208 211 215 220 226 230 234 236 232 231 236 242 246 247 248
203 213 260 246 214 216 236 207 179 182 236 262 253 212 201 174 142 86 147 141 2 323 98 0 323 282 230 224 238 227 215 216 207 200 201 205 205 194 176 184 192 186 178 175 178 176 173 176 185 191 193 193 194 196 198 200 201 201 202 202 201 202 203 204 204 203 202 202 202 202 201 201 207 213 216 219 220 224 229 231 233 238 244 247 250 252
211 223 325 196 201 206 201 207 200 178 208 256 230 224 262 166 125 105 131 127 66 262 230 137 345 287 226 208 228 217 200 211 197 185 199 206 202 198 204 213 208 202 183 173 177 172 170 178 187 193 197 198 200 200 201 202 202 202 203 203 202 202 203 205 205 204 201 200 198 197 199 202 207 215 222 225 226 226 229 232 233 237 243 246 249 251
189 111 358 194 185 191 195 211 205 177 196 246 238 239 117 113 117 132 150 140 133 216 265 131 166 266 280 237 228 193 187 206 191 196 214 208 203 205 212 217 210 213 214 199 195 182 169 172 177 185 193 197 202 202 200 200 200 200 201 202 201 201 202 203 203 203 201 200 198 197 199 203 207 214 222 230 236 239 242 242 241 243 247 251 252 253
118 118 311 223 165 171 189 213 203 180 187 241 282 315 110 119 131 153 161 173 171 142 357 352 172 245 293 283 246 152 165 207 207 215 225 216 209 202 197 204 198 196 195 188 195 197 184 179 176 179 188 195 201 201 199 197 196 196 197 197 198 198 199 200 201 202 202 201 200 198 201 205 210 217 220 226 233 236 241 241 240 242 245 249 249 250
83 147 186 169 148 170 186 233 214 181 184 240 275 312 107 132 146 158 159 180 113 90 310 264 200 217 264 259 270 121 158 216 226 220 218 210 201 183 170 171 166 161 151 152 174 184 191 195 190 186 187 191 197 198 198 197 194 193 193 193 194 195 197 198 198 200 202 203 203 203 206 208 212 215 216 218 222 228 236 237 235 234 235 240 243 244
15 166 175 153 159 173 156 359 316 193 188 213 204 49 45 83 112 148 162 140 77 98 231 222 190 187 272 244 206 162 193 221 229 224 205 187 169 151 146 144 141 143 139 151 176 177 175 180 183 183 180 182 188 192 195 196 195 194 194 193 193 194 196 197 197 198 199 200 203 207 209 211 212 214 217 219 220 224 231 231 230 230 231 237 245 249
254 143 123 132 169 179 132 57 346 299 146 142 144 86 55 49 50 46 113 99 98 251 240 219 193 162 277 258 198 185 220 213 206 192 148 135 131 129 133 145 153 154 158 169 175 163 152 158 173 177 176 181 187 190 192 194 195 193 191 190 189 189 192 193 193 194 195 196 198 201 204 206 209 210 214 218 219 220 221 222 224 230 233 235 242 249
60 66 127 89 264 244 147 86 5 349 127 116 131 121 85 35 30 23 356 64 144 241 260 308 338 103 229 260 227 192 217 193 171 168 157 144 138 140 140 142 144 140 153 162 155 151 145 148 171 175 170 175 180 181 182 182 183 183 182 181 179 179 183 186 187 189 193 197 197 196 194 198 202 203 207 212 216 219 223 229 231 234 238 238 242 248
73 90 147 62 289 237 171 108 36 354 320 122 152 136 117 103 73 140 245 193 202 243 267 309 336 256 230 253 260 244 208 168 118 131 150 150 144 145 141 130 128 129 141 146 142 148 153 155 168 166 158 160 164 167 170 171 170 171 173 173 170 170 176 182 184 185 189 194 195 192 189 192 196 200 205 208 212 219 225 232 236 239 245 248 252 255
96 331 172 132 237 206 182 150 122 204 256 213 171 146 144 151 150 196 204 195 219 269 287 292 306 257 265 265 255 250 219 167 124 99 115 130 134 139 139 134 133 128 124 122 126 133 137 146 156 155 151 153 155 157 160 163 164 162 163 167 167 168 173 178 180 181 184 188 190 188 186 187 192 197 203 207 211 219 225 228 232 239 246 253 260 265
178 238 190 165 174 176 184 187 146 164 186 209 188 151 170 175 163 187 184 180 191 216 311 304 286 194 208 246 227 213 130 106 106 104 104 106 120 129 135 145 141 129 122 118 112 111 110 121 134 139 142 146 147 150 154 156 159 159 161 168 171 170 174 179 181 181 182 184 183 183 182 185 190 196 201 205 210 214 220 226 231 238 247 257 267 276
182 221 286 250 263 181 184 243 45 123 171 227 184 121 204 209 145 145 178 178 157 107 271 253 247 214 205 239 211 147 98 88 101 110 117 122 127 129 135 141 133 124 125 122 113 107 104 111 121 127 132 138 142 146 148 151 155 157 162 171 175 175 177 179 179 178 179 179 178 180 182 185 191 196 201 206 211 215 218 223 230 241 250 257 265 267
173 216 325 318 312 2 191 296 8 140 183 204 152 175 220 173 113 116 246 237 112 134 214 187 251 279 277 269 226 139 138 152 152 158 154 152 144 138 144 138 128 125 125 122 119 122 118 114 117 123 129 135 138 141 141 143 148 152 156 165 169 170 170 169 168 169 172 176 178 180 182 186 194 200 202 202 207 217 221 223 231 239 245 248 251 254
151 123 328 334 358 315 219 75 346 237 146 118 164 206 214 62 78 119 178 359 75 199 225 167 209 248 231 257 295 136 181 207 195 196 190 166 151 154 160 146 137 133 126 116 109 116 123 119 115 119 124 127 132 136 137 137 141 144 148 154 156 156 156 155 156 160 166 172 176 177 179 187 199 207 205 199 204 217 224 230 239 246 254 259 261 263
141 122 315 340 272 272 301 109 197 246 132 137 194 209 116 145 270 169 181 200 157 200 255 227 222 229 198 204 203 185 202 209 202 197 190 178 168 165 159 147 141 131 126 122 117 118 121 121 119 119 120 121 127 134 136 137 138 138 139 145 148 149 151 154 157 161 167 173 176 178 181 189 198 205 211 215 219 226 232 238 247 254 261 267 270 273
152 147 241 301 262 254 15 79 192 210 204 148 318 10 75 161 193 180 205 206 154 181 239 249 252 251 230 213 196 199 201 193 191 191 187 188 185 174 159 157 159 151 150 148 142 138 121 117 119 121 123 124 126 130 132 135 137 136 137 142 147 150 153 156 159 164 171 176 179 181 184 191 200 207 217 227 235 241 244 249 255 259 263 266 270 276
130 136 153 276 305 168 175 215 192 188 189 184 175 151 178 192 118 144 258 219 136 162 219 222 265 259 249 235 186 180 178 176 178 180 187 190 180 171 163 164 169 162 161 155 144 141 123 117 118 121 128 130 129 130 131 134 138 139 140 142 146 150 152 154 157 162 169 173 174 179 183 190 199 209 220 227 232 231 229 239 250 258 267 274 279 283
136 127 134 145 189 175 207 270 171 158 173 179 191 191 186 174 130 130 263 251 122 158 192 179 241 269 264 306 47 121 124 113 133 157 174 178 166 164 164 166 165 158 158 153 143 138 128 126 126 128 132 132 133 132 131 135 139 140 142 143 146 150 151 155 159 161 167 168 169 175 179 183 184 181 185 185 187 191 194 209 241 267 288 297 301 304
112 101 109 129 180 186 220 302 62 89 140 145 243 221 170 167 166 171 212 232 206 204 141 132 230 276 269 316 23 59 101 89 83 121 140 148 148 150 151 154 150 144 144 140 134 131 130 132 134 133 132 131 133 133 130 133 138 140 143 145 150 153 151 155 159 159 160 160 160 162 161 158 152 147 147 149 151 145 130 117 101 71 37 33 26 12
101 104 109 109 70 357 337 85 27 350 127 160 247 219 177 191 197 188 187 185 181 179 143 140 239 269 279 329 20 14 54 63 346 101 121 127 132 140 144 145 143 137 131 128 125 123 125 130 135 135 133 132 132 132 131 133 136 138 141 146 149 149 147 149 150 147 147 146 143 141 139 134 130 131 132 129 125 115 105 96 88 77 64 58 51 43
173 144 123 117 116 49 344 265 274 249 201 208 226 207 196 183 157 151 159 115 214 211 172 164 228 253 274 318 332 275 229 224 239 213 155 137 139 149 146 140 141 137 133 132 131 129 129 134 139 138 135 133 133 133 133 135 137 138 140 143 144 143 142 141 140 137 135 136 135 131 128 125 122 122 121 117 111 102 96 89 83 76 68 62 55 49
175 173 145 145 172 187 199 210 205 190 179 223 241 203 197 175 148 162 190 170 233 226 173 174 229 250 278 307 280 227 199 202 196 174 180 169 150 155 156 154 154 152 153 151 147 146 144 143 140 135 133 135 136 139 139 137 139 142 143 142 142 142 140 138 137 136 135 135 132 127 123 121 119 119 117 112 105 99 93 87 80 74 67 61 56 52
150 190 180 183 197 202 204 206 174 142 145 191 210 203 199 196 187 184 179 190 212 208 191 212 221 238 264 253 227 227 208 208 193 160 181 194 164 158 164 166 165 164 165 157 151 150 148 146 140 133 134 137 138 140 141 139 139 142 144 143 144 144 140 138 140 139 136 133 128 124 122 120 118 117 112 106 101 94 88 83 76 70 65 60 57 53
122 202 204 199 211 212 207 206 177 160 179 199 202 204 203 198 193 188 198 212 203 184 226 234 212 225 240 198 203 232 216 208 207 187 189 188 171 164 158 156 158 162 165 157 157 160 156 151 142 135 137 141 142 142 143 142 142 142 142 141 142 142 138 138 140 137 134 129 124 120 118 116 112 108 103 99 94 88 83 79 74 70 66 61 58 54
140 200 208 199 219 225 206 197 182 177 194 205 202 206 205 195 189 194 212 222 204 185 232 233 205 218 231 192 205 223 201 200 207 189 173 163 160 156 150 156 166 171 174 172 171 170 163 157 148 142 142 144 146 146 144 143 143 143 142 139 139 139 137 138 137 133 129 124 119 116 113 110 106 104 101 97 92 88 84 80 76 73 69 63 57 51
145 204 202 188 219 232 198 178 191 188 199 209 207 207 199 191 195 201 215 225 217 214 235 236 220 230 228 199 214 218 187 184 170 141 145 156 162 159 156 169 181 183 187 185 181 177 169 161 151 147 148 149 150 150 145 142 142 143 141 139 139 137 136 138 134 129 126 120 114 112 111 109 107 106 104 98 93 89 85 81 76 71 63 55 48 40
176 215 168 154 211 239 201 104 282 198 197 209 213 205 187 186 199 209 220 227 224 229 244 253 261 263 236 196 207 191 133 128 125 144 166 166 161 161 167 180 188 193 198 192 184 177 168 162 154 151 152 154 154 152 148 146 145 144 142 140 139 136 135 135 130 125 122 116 114 115 114 112 110 107 102 95 90 85 78 71 63 55 48 42 35 29
164 175 40 102 184 239 296 60 77 49 38 280 244 207 184 184 198 207 216 219 211 218 237 248 256 257 234 188 189 160 137 149 165 173 176 170 168 171 180 191 197 201 200 191 183 178 174 170 160 153 153 154 155 154 152 149 147 146 144 141 138 134 132 131 127 123 119 116 117 118 115 112 107 101 95 87 81 74 65 58 50 44 39 34 30 24
150 140 82 127 183 248 326 334 128 76 39 268 242 209 192 193 200 205 217 223 212 208 218 224 235 241 221 177 194 198 174 179 186 181 180 184 185 185 188 194 201 206 199 187 182 184 183 171 155 153 155 155 156 155 155 155 153 149 146 143 139 134 130 127 125 124 120 119 120 117 111 107 101 94 88 80 74 68 60 53 46 42 36 32 27 20
164 156 151 158 184 272 323 333 111 124 228 238 222 194 194 198 195 195 214 221 212 209 214 220 233 237 205 179 198 201 191 193 194 193 192 183 177 186 197 203 206 204 195 182 179 183 176 154 145 149 154 155 155 154 155 158 155 148 146 143 138 133 129 127 126 125 123 120 118 113 108 103 98 92 87 81 75 68 61 53 44 40 34 26 21 15
173 168 156 158 172 1 352 3 158 201 232 245 207 181 196 201 195 198 217 222 212 210 217 228 240 236 199 188 196 196 203 205 194 193 193 177 171 180 192 205 207 195 185 177 171 172 164 148 143 146 151 154 156 156 156 156 152 147 145 142 137 131 130 130 128 124 123 120 115 111 107 102 98 94 88 82 76 65 57 48 38 33 28 21 16 12
170 174 156 147 154 129 64 195 208 239 275 302 305 207 192 195 193 202 230 237 222 210 213 227 239 236 215 203 203 201 205 202 203 216 199 173 172 176 183 198 198 188 185 179 170 168 165 159 154 154 154 155 157 158 155 153 152 148 143 138 135 132 133 133 129 123 122 119 114 110 106 100 97 92 84 76 66 55 47 40 31 25 21 17 14 11
169 171 162 162 175 180 189 203 231 306 311 264 240 210 172 178 179 187 229 246 225 202 207 220 232 235 224 204 191 173 139 136 225 253 225 177 169 160 161 172 166 156 154 155 158 162 161 160 157 155 154 153 154 156 154 153 153 147 139 135 134 134 135 132 127 122 120 117 112 107 103 96 90 81 72 62 52 43 38 33 27 21 16 13 11 11
167 176 177 181 188 184 189 205 217 257 258 244 228 188 167 173 160 158 203 252 228 199 204 216 226 232 220 182 164 139 117 145 222 247 234 200 170 129 113 104 109 120 125 131 137 140 143 148 149 150 151 150 149 152 153 152 151 144 137 134 136 136 134 129 124 122 120 116 110 104 97 89 80 70 60 51 43 38 33 28 25 21 16 12 10 10
117 200 171 176 189 181 188 212 207 214 243 246 218 180 174 161 128 115 181 256 238 196 196 213 223 226 205 169 164 145 131 183 228 240 231 197 149 116 114 106 99 108 121 131 136 136 138 142 144 145 148 146 144 149 153 152 149 142 136 135 138 136 130 126 125 124 121 115 109 105 97 86 77 66 55 47 40 35 31 27 25 21 16 13 10 7
170 174 155 182 206 189 189 216 221 228 253 236 175 173 173 148 119 117 222 258 236 162 183 207 215 220 197 166 165 165 172 207 228 223 181 126 98 89 107 120 117 116 119 126 133 136 139 142 142 142 143 143 144 149 152 151 147 140 136 137 138 133 129 128 128 126 124 119 114 108 99 88 76 62 53 48 41 34 29 26 23 19 16 15 12 8
179 190 184 199 212 199 195 218 240 251 246 206 173 172 155 133 128 171 221 252 167 152 189 203 200 208 195 167 170 188 198 204 167 140 121 102 92 84 95 108 116 121 124 128 133 136 136 137 139 138 138 142 146 149 152 151 144 138 137 139 136 132 131 132 132 131 129 124 117 110 99 88 75 61 53 47 42 36 30 26 23 20 17 15 12 9
175 186 198 201 207 210 202 213 256 262 229 160 135 171 152 143 175 211 217 277 127 164 186 189 191 198 179 166 180 186 160 112 108 113 107 103 109 109 107 110 112 117 124 129 133 136 134 131 132 132 134 140 145 148 153 152 144 139 140 139 135 134 137 137 136 135 131 124 117 108 96 85 72 60 52 43 38 35 29 26 26 22 18 15 11 8
170 171 192 199 198 206 201 197 231 258 220 126 110 102 207 182 201 202 164 33 32 152 127 117 168 171 146 155 170 145 124 119 115 112 108 111 118 121 123 125 125 126 129 131 134 140 137 131 129 131 134 141 145 149 156 155 146 141 142 140 137 139 141 140 138 134 128 121 114 105 95 85 71 59 52 42 36 34 30 27 27 23 17 14 11 8
176 174 187 199 193 186 198 208 214 230 170 142 142 173 204 196 196 172 149 106 29 115 110 98 90 124 141 144 138 129 130 130 126 125 123 123 129 128 128 132 133 133 135 135 139 143 140 134 131 132 135 142 147 150 158 159 151 144 143 141 140 142 142 140 137 131 124 120 113 103 96 86 73 62 54 46 38 34 30 25 24 22 18 15 13 8
198 188 169 178 192 189 201 217 212 183 175 168 158 180 177 160 104 133 134 117 123 182 133 114 106 104 122 129 128 132 142 141 141 143 136 134 139 138 135 138 140 139 138 138 141 146 144 139 137 136 135 140 147 150 156 162 158 150 145 143 142 143 142 139 136 130 125 122 115 107 99 89 79 68 58 50 40 33 29 23 20 20 18 15 13 9
220 197 149 141 193 214 224 209 165 151 209 222 5 5 157 127 79 96 107 100 124 143 114 123 138 130 125 132 133 134 145 148 145 141 138 140 141 137 135 138 140 141 141 142 145 149 148 143 141 140 137 139 147 151 153 161 163 155 147 145 144 144 142 139 136 131 127 123 117 110 100 88 79 67 53 47 40 32 27 22 18 17 17 14 12 10
278 206 155 143 181 201 220 200 157 166 214 212 46 37 78 79 55 63 98 110 128 121 101 113 134 136 135 139 139 140 150 150 143 141 145 144 142 144 144 142 145 149 150 150 152 154 152 147 144 143 141 141 148 154 155 160 163 156 148 146 145 144 142 140 136 133 131 126 118 107 92 77 69 58 47 41 35 30 27 23 19 17 16 15 11 9
207 173 162 180 188 183 196 207 166 163 192 173 114 100 111 98 68 60 85 109 113 101 86 85 108 127 136 141 141 141 150 157 154 152 155 152 149 154 155 152 153 155 156 156 158 160 157 153 150 149 148 148 152 158 161 162 162 157 151 148 147 146 145 144 141 139 135 128 116 100 83 70 58 48 41 33 27 25 23 18 16 19 22 19 13 7
141 154 170 180 190 201 229 187 91 66 27 312 270 168 148 134 115 101 98 98 97 96 84 66 66 96 123 139 144 141 148 166 166 156 155 158 160 161 161 160 159 159 160 162 164 164 163 160 158 156 154 154 157 162 166 165 163 161 158 153 151 151 150 148 146 141 133 125 116 101 87 73 53 38 28 22 21 22 21 17 14 17 23 24 18 9
143 166 168 161 188 225 228 188 156 125 166 256 255 192 133 129 118 111 110 106 109 122 117 92 62 50 75 109 134 143 152 165 164 157 159 166 169 168 165 162 160 160 164 165 166 169 170 167 164 161 158 158 161 165 168 170 168 166 163 156 153 152 152 149 147 142 135 129 122 110 97 77 55 36 23 15 11 10 12 16 18 19 22 22 14 10
177 183 169 163 187 221 233 189 174 157 158 211 266 62 111 126 115 114 129 130 126 142 140 123 109 90 76 79 114 142 156 162 159 159 161 168 173 173 170 167 166 167 169 170 169 170 171 169 168 165 162 162 165 168 172 175 173 169 164 158 155 154 154 155 154 149 143 138 131 123 109 80 54 36 25 18 11 4 0 2 10 23 32 19 6 9
Height
811 820 823 822 819 813 810 808 806 804 801 804 808 813 814 814 817 817 820 818 814 820 821 816 816 814 810 807 806 809 810 810 811 810 810 809 809 808 809 810 810 811 810 809 811 812 814 816 818 821 823 825 828 829 831 833 834 835 836 838 839 842 845 846 848 849 851 853 854 856 857 858 859 860 861 861 862 863 864 865 865 865 867 867 868 869
811 821 820 814 811 807 805 803 801 801 801 802 805 812 812 812 817 818 818 818 816 819 819 814 815 813 808 806 803 805 810 810 808 808 808 808 807 807 806 807 808 808 808 808 809 810 812 814 816 819 821 822 824 826 828 830 831 833 834 835 836 838 841 843 845 846 848 849 851 852 854 855 857 858 858 859 860 861 862 863 863 863 864 866 867 867
818 820 813 807 805 803 802 800 800 802 803 803 804 810 814 813 818 822 820 818 817 820 818 814 818 815 807 804 802 802 805 805 803 803 803 804 805 805 804 804 805 806 807 808 808 809 810 812 814 816 818 819 821 822 825 827 829 831 832 833 834 836 838 840 842 843 845 847 848 850 852 853 855 856 856 857 858 859 860 861 861 861 862 863 865 866
824 817 807 802 802 803 803 801 801 804 806 806 806 809 814 813 816 822 824 822 818 819 821 819 820 816 808 805 801 798 798 797 797 797 797 799 800 800 800 800 802 803 805 806 807 808 809 811 813 814 816 817 819 820 822 824 826 828 829 831 833 834 835 837 839 841 843 845 847 849 851 852 853 854 855 855 856 857 858 859 860 860 860 861 862 864
816 811 805 801 801 803 806 805 803 808 811 808 806 809 812 811 812 816 821 823 821 821 822 821 823 818 808 807 802 794 793 793 793 794 795 795 795 796 797 798 798 799 801 803 805 806 807 809 810 811 813 815 817 818 819 821 823 825 827 829 831 832 834 835 837 840 842 844 845 847 849 851 851 852 853 853 854 855 855 856 857 858 859 860 860 861
808 807 808 804 802 803 806 808 805 808 815 811 806 805 805 808 811 817 821 824 829 830 821 821 832 822 801 800 800 792 792 793 791 793 794 794 794 795 796 797 797 798 798 800 802 803 805 806 808 810 812 813 814 815 817 819 821 823 825 827 829 831 832 834 835 837 840 841 842 844 845 847 848 849 849 850 851 853 854 854 855 856 857 858 858 858
807 809 809 804 803 804 806 809 805 805 815 816 808 803 801 806 813 819 821 822 830 832 820 819 832 826 804 796 794 790 792 793 792 793 793 793 794 794 795 796 797 798 798 799 800 801 803 804 806 808 809 811 812 813 815 817 819 821 823 825 827 829 830 832 833 835 837 838 840 841 843 844 846 846 847 849 850 851 852 853 854 855 855 856 856 857
807 809 810 805 804 807 809 811 804 802 814 816 809 805 803 807 814 818 819 820 824 826 824 823 825 830 822 802 789 788 793 794 793 794 793 792 792 792 793 794 795 796 797 798 800 801 802 803 804 806 807 809 810 812 814 815 817 819 821 823 824 826 828 830 831 833 834 836 838 840 841 843 844 845 847 848 849 850 851 852 852 853 854 854 854 855
804 806 808 805 806 810 809 809 803 801 810 813 810 808 804 805 810 812 817 821 820 823 831 829 823 833 830 805 791 791 794 797 794 791 790 789 789 790 792 793 794 795 796 798 800 801 802 803 804 805 806 808 809 811 812 813 815 817 819 821 823 825 826 828 830 831 832 834 836 838 840 842 843 844 846 847 848 849 849 850 851 851 852 852 853 853
807 809 808 805 806 809 808 809 807 803 806 809 810 808 805 806 808 811 816 818 821 828 833 828 823 832 827 803 796 800 797 796 791 785 786 786 787 790 791 793 795 796 797 798 799 800 801 802 803 804 805 807 808 809 811 813 814 816 818 819 821 823 824 826 828 829 831 833 835 837 838 840 841 843 844 845 846 848 848 848 849 849 850 851 851 851
810 811 810 809 809 809 810 812 812 806 805 807 809 810 811 812 811 814 815 815 829 836 832 828 823 828 829 806 794 798 793 788 785 784 786 787 788 791 792 794 795 796 798 799 799 800 801 802 803 804 805 806 807 809 810 812 813 815 816 818 820 822 823 825 826 828 829 831 833 835 837 838 840 841 843 844 845 846 846 846 847 847 848 849 849 849
811 811 812 812 813 811 810 811 811 809 808 808 809 812 820 823 821 824 823 824 838 840 833 835 829 829 833 809 787 787 784 781 782 783 786 789 790 792 793 794 794 795 797 798 799 800 801 802 802 803 804 805 807 808 809 811 812 814 815 817 819 821 822 823 825 827 828 830 831 833 835 837 838 840 841 842 843 844 844 844 845 846 846 846 847 847
811 812 811 812 814 811 809 812 815 814 812 810 810 815 826 835 838 841 839 836 841 840 837 838 834 831 828 805 786 785 781 779 781 781 783 787 790 792 793 794 794 795 796 797 798 799 800 801 802 803 804 805 806 807 809 810 811 813 815 816 818 820 821 823 824 826 827 828 830 831 833 835 837 838 840 841 842 842 843 843 843 844 844 845 845 846
816 815 812 812 813 810 809 812 817 818 815 812 811 817 826 837 849 852 846 840 840 840 839 837 834 831 821 799 784 782 779 778 780 782 784 785 788 791 792 793 794 794 795 796 797 798 799 800 801 802 803 804 806 807 808 810 811 813 814 816 817 819 821 822 823 825 826 827 829 830 832 833 835 836 838 839 840 840 841 841 842 842 843 843 844 844
817 817 813 811 810 808 807 809 810 810 812 809 803 808 817 823 833 840 837 833 837 842 843 840 833 823 812 795 782 780 780 780 781 783 785 786 788 790 791 792 793 794 795 796 797 798 799 800 800 801 803 804 805 806 808 809 811 812 813 815 816 817 819 821 823 825 826 827 828 829 830 832 833 834 835 836 837 838 839 840 840 841 842 842 843 843
808 811 811 813 811 807 808 808 805 805 812 809 800 806 814 809 812 827 832 827 831 840 841 839 828 811 798 787 779 781 782 782 784 784 784 787 788 789 790 791 792 793 795 795 796 798 799 800 800 801 803 804 805 806 808 809 810 812 813 814 815 817 819 820 822 824 825 827 827 828 829 830 831 832 833 834 835 836 837 838 839 840 840 841 842 842
802 811 814 814 812 810 811 811 807 807 811 809 807 812 811 804 805 820 833 830 828 832 831 828 820 805 795 786 780 783 783 782 786 785 784 786 787 788 789 790 792 793 794 795 796 798 799 800 801 802 803 804 805 807 808 809 811 812 813 814 815 817 819 820 822 824 825 826 827 828 829 830 831 832 833 834 835 836 837 838 839 839 840 840 840 841
793 812 819 813 812 813 814 814 809 808 808 808 811 810 803 805 806 809 822 831 831 830 824 820 814 804 801 796 787 787 787 785 786 785 785 786 787 788 788 789 792 792 794 795 795 797 799 800 801 802 803 804 806 807 808 809 811 812 813 814 815 817 819 821 822 824 826 827 828 829 829 831 831 832 833 834 835 836 837 838 838 839 839 839 839 839
780 804 819 816 814 814 811 812 811 809 809 807 808 806 805 813 815 811 818 827 830 829 821 816 813 806 802 795 787 786 787 785 785 785 785 786 786 787 788 790 791 792 794 795 796 797 798 800 801 802 803 805 806 807 808 810 811 812 814 815 816 818 819 821 822 824 825 827 828 829 830 831 832 833 833 834 835 835 836 837 837 838 838 838 838 838
774 792 814 818 815 813 811 812 811 810 810 807 806 806 807 810 812 811 811 813 820 825 820 817 819 809 794 782 776 777 779 779 782 783 782 783 785 785 786 789 791 792 793 794 796 797 798 800 802 803 804 805 806 807 808 810 811 812 814 815 816 818 819 821 822 824 825 826 827 828 829 830 831 832 833 833 834 834 835 835 836 836 837 837 837 837
775 784 805 819 816 814 814 811 808 806 808 810 810 810 809 808 810 811 806 803 810 818 817 817 820 804 783 775 771 770 773 774 776 779 779 780 782 783 785 787 789 792 793 794 795 797 798 800 802 803 804 805 806 807 808 809 811 812 814 815 816 818 819 820 822 823 824 826 827 828 829 829 830 831 832 832 833 833 834 834 834 835 835 835 836 836
777 784 804 821 819 814 811 809 808 806 805 806 807 806 806 807 811 816 816 808 806 812 812 813 815 797 777 776 774 771 775 775 774 776 777 778 780 781 784 786 788 790 791 793 795 796 799 800 801 803 804 805 806 807 809 810 811 812 813 815 816 817 819 820 821 823 824 825 827 827 828 829 829 830 831 831 832 832 833 833 833 834 834 835 835 835
776 787 806 819 816 813 812 813 815 814 808 806 806 803 801 804 807 813 819 812 808 814 813 812 815 797 777 780 780 777 778 778 778 778 776 778 781 782 785 786 788 789 791 793 795 796 798 800 801 803 804 806 807 808 810 810 811 813 814 815 816 817 819 820 821 822 824 825 826 827 828 829 829 830 830 831 832 832 832 832 833 833 834 834 834 834
774 784 801 813 813 812 812 812 814 814 811 807 806 803 800 800 799 802 806 804 807 814 811 815 819 797 777 782 785 782 782 782 781 781 779 781 783 784 786 787 787 789 791 793 795 797 799 800 801 803 804 806 807 808 810 811 812 813 814 816 817 817 819 820 821 822 823 825 826 827 828 828 829 830 830 831 832 831 831 832 833 833 833 834 834 834
774 779 792 809 816 815 815 814 812 812 811 805 801 800 800 798 797 800 801 801 808 810 805 812 817 794 778 784 786 784 784 781 780 782 782 783 784 786 787 788 789 790 791 793 795 797 799 800 802 803 804 806 807 809 810 811 812 813 815 816 817 818 819 819 820 822 823 824 825 826 827 828 829 830 831 831 831 831 831 832 832 833 833 833 833 833
770 774 781 797 808 811 810 808 803 802 807 805 799 798 799 799 799 799 802 806 810 808 803 806 804 788 779 782 783 782 782 779 778 782 783 784 785 786 788 789 790 791 791 793 795 797 799 800 802 803 804 806 808 809 811 812 813 814 815 816 817 818 819 820 821 822 823 824 825 826 827 828 829 830 831 831 831 831 831 831 832 833 833 833 833 833
767 770 771 778 785 787 787 786 783 788 798 801 798 796 797 798 796 795 802 807 805 804 805 800 791 784 781 780 781 780 779 777 778 781 783 783 784 785 787 788 789 790 792 792 794 796 798 800 801 803 804 807 808 810 811 812 813 814 815 816 818 819 819 820 821 822 823 824 825 826 827 829 830 831 831 831 831 831 831 831 832 832 833 833 833 833
766 771 770 769 771 770 771 772 773 779 787 788 789 792 793 794 795 797 800 796 793 802 806 794 786 786 782 777 777 776 776 777 776 777 780 782 783 784 785 788 789 790 792 792 794 796 797 799 801 802 804 806 808 810 811 812 813 814 816 817 818 819 819 820 821 822 824 825 825 827 828 829 830 830 831 831 831 831 831 831 832 833 833 834 833 834
764 770 769 768 770 768 766 768 770 774 778 779 782 787 789 793 797 798 796 788 787 797 795 784 782 785 780 774 772 770 771 773 771 772 777 780 781 783 785 787 788 790 791 792 793 794 796 798 799 801 804 806 808 810 811 812 813 814 816 817 818 819 819 820 821 822 824 825 826 828 829 829 829 829 831 831 831 831 831 832 833 833 834 834 834 834
763 767 767 767 771 771 770 771 770 771 774 775 778 781 784 791 793 793 790 784 785 788 781 777 781 781 775 771 767 765 767 769 770 772 775 778 780 782 784 786 788 789 790 790 791 793 795 796 798 800 802 804 806 809 810 812 813 814 816 817 818 820 820 820 821 822 824 825 826 828 828 829 829 829 830 830 830 831 831 832 833 833 834 834 833 834
764 768 768 769 774 776 776 776 775 775 775 775 776 777 780 788 791 791 788 784 786 788 781 780 786 781 772 766 764 766 768 769 771 772 774 777 780 781 783 785 786 787 787 788 790 792 794 795 796 798 801 803 805 807 809 811 812 814 816 817 819 819 819 819 820 822 824 825 826 827 828 829 829 829 829 830 830 831 832 832 833 833 833 833 833 834
765 771 771 773 778 780 781 784 782 779 779 780 780 778 779 783 786 785 783 780 784 787 785 788 789 779 768 764 764 767 769 768 769 771 774 777 778 779 781 782 783 783 784 786 788 790 792 793 793 795 799 802 804 806 807 809 811 813 815 817 819 818 818 818 819 821 823 824 826 827 828 828 828 828 828 829 830 831 831 832 832 833 833 833 833 833
764 768 772 777 779 782 792 795 785 782 788 786 778 772 772 775 777 778 778 777 777 779 783 786 779 766 762 763 764 768 769 767 767 769 772 773 774 776 777 778 779 779 781 783 786 789 791 790 790 793 796 800 802 804 806 808 810 812 814 817 818 817 816 817 819 821 822 824 826 827 827 827 827 827 828 829 830 831 832 832 832 832 832 833 833 833
763 763 770 776 777 785 799 796 785 789 792 776 760 759 763 766 770 775 775 771 770 770 770 769 762 758 760 762 762 765 766 764 764 764 765 766 770 773 774 774 776 777 779 782 784 788 790 788 789 792 795 798 801 802 805 807 809 811 814 816 816 814 814 816 819 821 822 824 826 826 826 826 826 828 829 830 831 831 831 832 832 832 832 832 832 832
764 765 769 775 781 793 802 797 792 793 780 759 750 753 755 758 762 766 765 761 761 763 762 761 759 757 759 758 757 759 759 759 760 760 761 763 765 768 771 772 773 775 777 780 782 787 788 786 787 791 794 797 799 801 804 806 808 810 813 814 813 812 814 817 819 821 823 824 825 826 826 826 827 828 829 830 831 831 831 831 831 831 831 831 831 831
762 765 768 775 785 796 803 800 791 778 764 757 757 754 753 757 760 765 765 758 756 759 760 760 758 754 755 756 755 755 755 757 758 758 759 761 762 764 767 769 770 772 774 776 779 783 784 784 785 789 793 796 798 800 803 805 807 809 810 811 811 813 816 818 820 821 822 823 825 825 825 826 827 828 828 829 829 829 829 829 829 829 830 830 830 830
758 761 765 773 779 783 791 794 785 776 769 762 755 750 750 752 754 761 764 756 750 753 755 755 753 751 753 754 755 756 757 758 760 758 756 760 762 763 766 767 769 771 772 774 777 779 781 783 785 788 791 794 797 799 801 804 806 807 808 810 812 814 816 818 819 821 822 823 824 824 825 826 826 827 827 828 828 828 828 828 828 828 829 829 828 828
758 758 760 768 771 772 780 787 789 789 776 754 743 743 744 745 746 753 760 755 745 743 746 747 747 748 751 754 757 759 759 762 765 759 755 758 761 764 767 769 770 771 772 774 777 779 781 783 786 789 791 794 797 799 801 803 805 806 807 810 812 814 816 817 818 820 821 822 823 824 824 825 826 826 826 826 826 826 827 827 827 828 827 827 827 826
760 758 756 762 768 770 775 779 781 779 761 739 736 740 742 743 744 752 764 756 737 733 740 742 743 745 747 752 758 759 761 766 765 757 754 758 761 764 767 770 772 773 774 775 776 779 782 784 786 790 792 794 797 799 801 803 804 805 807 810 812 814 815 816 818 820 821 822 822 823 824 824 825 825 825 825 825 825 826 826 826 826 826 825 825 824
762 761 760 764 765 766 770 771 767 759 744 733 733 736 739 740 741 758 770 750 726 729 737 736 739 742 743 749 756 757 758 759 755 754 758 761 763 766 768 770 772 774 775 777 778 779 782 784 787 790 792 794 797 799 801 802 803 805 807 810 812 813 814 816 818 819 820 821 821 822 823 823 823 824 824 824 824 824 825 825 824 824 824 823 823 823
765 762 761 763 762 762 766 765 759 748 735 730 733 734 736 740 746 758 757 736 722 728 730 729 734 737 738 746 752 751 751 751 751 757 763 764 765 768 770 771 773 775 776 778 779 781 783 785 787 790 792 795 797 798 800 801 802 805 808 809 811 812 814 816 817 818 819 820 820 821 821 822 822 822 823 823 823 823 823 823 823 823 822 822 821 821
763 761 760 761 760 759 760 762 761 747 729 726 736 737 734 740 747 744 735 729 729 728 726 729 733 732 735 743 745 746 751 756 758 761 764 765 766 770 772 773 774 776 778 779 781 782 783 786 789 791 793 795 797 798 800 801 802 805 807 809 810 812 814 815 816 817 818 819 819 820 820 821 821 821 822 822 822 822 822 822 822 822 821 821 820 820
750 756 759 758 754 754 757 761 760 745 726 724 736 739 735 735 735 729 727 732 733 729 728 732 732 732 736 740 743 748 754 759 761 763 765 768 769 770 773 774 775 777 779 780 782 783 784 786 789 791 793 795 797 799 800 801 802 804 807 808 810 812 813 814 815 816 817 817 818 819 819 820 820 820 821 821 821 821 821 821 821 821 820 819 818 818
737 741 746 745 742 747 752 749 741 732 725 724 727 729 730 729 727 726 726 730 733 734 733 733 734 737 737 738 745 752 755 758 762 764 766 769 770 771 773 774 775 777 779 780 782 784 784 786 789 792 794 796 797 799 800 801 802 804 806 808 810 811 812 814 814 815 816 817 817 818 818 819 819 819 820 820 820 820 820 820 819 819 818 818 817 816
725 724 728 731 730 732 733 729 724 725 726 723 721 721 723 725 728 729 727 726 731 735 735 734 738 740 739 742 748 752 755 758 762 763 766 768 770 772 773 775 776 777 779 781 783 784 786 787 789 791 794 796 797 799 800 801 802 803 805 807 809 810 811 813 813 814 815 816 816 817 817 818 818 818 818 819 818 818 818 818 817 817 817 816 815 815
722 720 720 722 725 725 723 722 724 727 726 724 724 725 725 725 729 730 728 728 733 736 736 737 739 740 742 745 747 751 755 758 761 764 766 768 770 772 773 775 777 778 779 781 783 784 786 787 789 791 793 795 798 798 800 801 802 803 805 807 808 810 811 812 812 813 814 815 815 816 816 817 817 817 816 817 817 816 816 816 816 816 816 815 815 815
724 723 720 720 724 725 722 720 722 725 725 724 725 727 727 729 732 732 730 732 736 738 738 739 740 742 744 744 745 750 755 758 760 764 766 767 770 772 773 775 777 778 779 781 782 784 785 787 789 791 792 795 797 798 799 801 802 803 805 806 807 809 810 810 811 812 813 814 814 815 815 815 815 815 815 815 815 815 815 815 815 815 814 814 814 814
720 722 722 721 721 721 720 722 724 723 723 725 726 727 728 731 734 736 735 736 739 740 741 741 742 743 744 745 747 750 754 758 760 761 764 767 769 771 773 774 776 778 780 781 782 784 785 786 788 790 792 794 796 797 799 800 801 803 804 805 806 807 808 809 810 811 811 812 812 813 813 813 814 814 814 814 813 813 813 813 813 813 813 813 813 813
717 720 719 718 720 720 721 726 728 726 725 727 727 727 729 731 734 739 740 741 741 742 742 743 744 744 744 746 748 750 753 757 759 760 763 766 767 770 772 773 775 777 779 780 782 783 785 786 787 789 791 793 795 797 798 799 800 802 803 804 805 806 807 807 808 809 809 810 810 811 811 812 812 813 812 812 812 812 812 812 812 812 812 813 813 813
717 716 715 717 720 719 717 720 723 723 724 726 727 729 732 734 736 739 740 740 741 742 743 744 745 746 747 747 749 750 752 756 758 760 762 764 766 768 770 771 774 777 778 780 782 783 785 786 787 788 791 792 794 796 797 798 799 800 801 803 804 804 805 806 806 807 808 808 809 809 810 810 811 811 810 810 809 810 810 810 811 811 811 812 812 812
712 710 711 714 716 717 717 718 718 718 720 727 732 734 735 736 736 738 739 740 741 742 743 744 745 747 748 749 750 751 752 754 757 759 761 764 766 767 769 770 772 774 776 779 780 782 784 786 787 788 790 791 793 794 795 796 797 798 800 801 802 803 804 804 805 806 806 807 807 808 808 808 808 808 808 808 807 807 807 808 809 810 811 811 811 810